Location: Schommer Observatory
(40.5200°N, 74.4500°W)
Time: 07:32:08
(UTC-04:00)

Hubble Space Telescope - Visible Passes

Search period start: 26 May 2018 00:00
Search period end: 05 June 2018 00:00
Orbit: 537 x 541 km, 28.5° (Epoch: 25 May)

Date Brightness Start Highest point End Pass type
(mag) Time Alt. Az. Time Alt. Az. Time Alt. Az.
02 Jun 2.7 04:50:04 10° SW 04:52:28 15° S 04:54:53 10° SSE visible
03 Jun 2.7 04:39:52 10° SW 04:42:01 14° S 04:44:18 10° SSE visible
04 Jun 2.7 04:30:12 12° SSW 04:31:34 14° S 04:33:39 10° SSE visible
